Regional Weather Roundup
Issued by NWS

Home | Current Version | Previous Version | Text Only | Print | Product List | Glossary Off
Versions: 1 2 3 4 5 6 7 8 9 10 11 12 13 14 15 16 17 18 19 20 21 22 23 24 25 26 27 28 29 30 31 32 33 34 35 36 37 38 39 40 41 42 43 44 45 46 47 48 49 50

000
ASUS43 KMPX 191810
RWRMN
WEATHER ROUNDUP FOR MINNESOTA
NATIONAL WEATHER SERVICE TWIN CITIES/CHANHASSEN MN
100 PM CDT SAT APR 19 2014


NOTE: "FAIR" INDICATES FEW OR NO CLOUDS BELOW 12,000 FEET WITH NO
SIGNIFICANT WEATHER AND/OR OBSTRUCTIONS TO VISIBILITY. N/A MEANS
CURRENT SKY AND/OR WEATHER CONDITIONS ARE NOT AVAILABLE.

MNZ060>063-068>070-191900-
   Twin Cities Metro

CITY           SKY/WX    TMP DP  RH WIND       PRES   REMARKS
TWIN CITIES    PTSUNNY   57  39  51 S16       30.05F
6HR MIN TEMP:  43; 6HR MAX TEMP:  57;

ST PAUL        CLOUDY    59  38  45 S20G25    30.06F
CRYSTAL        PTSUNNY   59  38  45 S16G31    30.01F
EDEN PRAIRIE   PTSUNNY   61  40  45 S21G26    30.01F
6HR MIN TEMP:  45; 6HR MAX TEMP:  62;

LAKEVILLE      CLOUDY    57  43  58 S8G16     30.05S
SOUTH ST PAUL  CLOUDY    59  38  45 S15G21    30.05S
LAKE ELMO      CLOUDY    57  37  47 S13G24    30.07S
$$
MNZ001>005-007-008-013>017-022>024-027-028-191900-
   Northwest Minnesota

CITY           SKY/WX    TMP DP  RH WIND       PRES   REMARKS
BEMIDJI        MOSUNNY   60  42  51 SW16      29.85S
HALLOCK        CLOUDY    55  39  54 SW23G32   29.77R
ROSEAU         SUNNY     57  41  54 SW18G31   29.77R
WARROAD        MOSUNNY   57  45  62 SW17G26   29.76R
THIEF RVR FALL MOSUNNY   57  37  47 SW18G25   29.83R
CROOKSTON      MOSUNNY   61  37  41 SW18G26   29.83F
FOSSTON        MOSUNNY   59  34  38 SW16G25   29.85R
DETROIT LAKES  MOSUNNY   61  34  36 W15       29.90S
MOORHEAD       MOSUNNY   61  27  27 SW15G21   29.90R
PARK RAPIDS    PTSUNNY   60  44  55 SW17G24   29.89R
$$
MNZ006-009>011-018-025>026-191900-
   North Central Minnesota

CITY           SKY/WX    TMP DP  RH WIND       PRES   REMARKS
BAUDETTE       MOSUNNY   53  41  63 S14G23    29.79S
FLAG ISLAND    MOSUNNY   37  34  87 SE18      29.75S
INTL FALLS     CLOUDY    41  32  70 S10G18    29.87F
6HR MIN TEMP:  34; 6HR MAX TEMP:  41; 6HR PCP: TRACE;

WASKISH        MOSUNNY   57  43  58 S10G20    29.82F
BIG FORK       PTSUNNY   48  36  61 S13G24    29.90S
LONGVILLE      PTSUNNY   55  41  58 S10G21    29.90F
GRAND RAPIDS   CLOUDY    48  34  57 S22G32    29.93F
CRANE LAKE     CLOUDY    37  36  93 S8G18     29.96F
ORR            CLOUDY    39  30  70 S18G26    29.91F
COOK           CLOUDY    37  30  75 SE13G22   29.95F
$$
MNZ012-019>021-037-191900-
   Northeast Minnesota

CITY           SKY/WX    TMP DP  RH WIND       PRES   REMARKS
DULUTH         CLOUDY    37  29  72 SE14      30.03F
6HR MIN TEMP:  33; 6HR MAX TEMP:  37; 6HR PCP:  0.07;

ELY            CLOUDY    36  28  75 SE16G23   29.99F
HIBBING        CLOUDY    43  33  68 SE12G22   29.96F
EVELETH        CLOUDY    36  32  87 SE13G20   29.99F
DULUTH HARBOR  DRIZZLE   34  30  86 CALM      30.09S
TWO HARBORS    PTSUNNY   34  28  80 E15       30.05F WCI  24
SILVER BAY     DRIZZLE   32  30  93 NE14G20   30.07F WCI  22
GRAND MARAIS     N/A     33  30  88 NE14G22   30.17F WCI  23
G MARAIS ARPRT MIX PCPN  30  25  80 E12G20    30.11F WCI  21
$$
MNZ029>031-032-039>041-046>048-054>057-064-191900-
   West Central Minnesota

CITY           SKY/WX    TMP DP  RH WIND       PRES   REMARKS
FERGUS FALLS   MOSUNNY   63  28  27 W15G21    29.89S
WHEATON        MOSUNNY   66  37  34 W9G17     29.95F
MORRIS         PTSUNNY   63  43  48 NW13      29.94R
ALEXANDRIA     CLOUDY    58  46  64 SW16      29.95R
ELBOW LAKE     FAIR      63  38  39 W12G20    29.93S
WADENA         PTSUNNY   59  46  63 SW14      29.91S
GLENWOOD       CLOUDY    57  46  67 SW15      29.95S
APPLETON       CLOUDY    64  43  45 NW13      29.96R
BENSON         CLOUDY    61  46  59 NW10      29.95R
ORTONVILLE     PTSUNNY   63  37  39 W8        29.96R
MADISON        CLOUDY    64  45  48 W10       29.97R
WILLMAR        FAIR      59  46  63 SW10      29.97F
$$
MNZ033>034-036-042>043-049>051-058-059-191900-
   Central Minnesota

CITY           SKY/WX    TMP DP  RH WIND       PRES   REMARKS
ST CLOUD       CLOUDY    51  40  65 SE10      29.98F
6HR MIN TEMP:  42; 6HR MAX TEMP:  51; 6HR PCP: TRACE;

SAUK CENTRE    FAIR      55  45  67 S14       29.95F
PAYNESVILLE    CLOUDY    55  43  66 S3        29.97S
AITKIN         CLOUDY    52  36  54 S17G26    29.95S
PINE RIVER     CLOUDY    55  43  62 SW17G26   29.95S
BRAINERD       CLOUDY    57  38  48 S21G29    29.96R
STAPLES        CLOUDY    55  43  62 SW15G22   29.94R
LONG PRAIRIE   FAIR      54  45  71 S17G24    29.95S
LITTLE FALLS   CLOUDY    52  37  58 S13G20    29.97S
LITCHFIELD     CLOUDY    61  45  55 SE7       29.97F
BUFFALO        CLOUDY    58  40  52 S9G22     30.00F
MAPLE LAKE     CLOUDY    56  45  64 S10G17    30.00S
$$
MNZ037-044-045-052-053-191900-
   East Central Minnesota

CITY           SKY/WX    TMP DP  RH WIND       PRES   REMARKS
PRINCETON      LGT RAIN  52  39  62 SE12      30.00S
MORA           DRIZZLE   45  32  61 S9        30.03S
CAMBRIDGE      CLOUDY    50  36  57 S14G20    30.00F
RUSH CITY      CLOUDY    47  32  56 S10       30.03S
MOOSE LAKE     CLOUDY    45  28  53 S8        30.00F
HINCKLEY       MOCLDY    45  32  61 S8        30.01F
CLOQUET        CLOUDY    45  27  49 SE8       30.02F
MCGREGOR       CLOUDY    48  34  57 S20G25    29.99R
$$
MNZ071>073-080-081-089-090-097-098-191900-
   Southwest Minnesota

CITY           SKY/WX    TMP DP  RH WIND       PRES   REMARKS
MONTEVIDEO     CLOUDY    61  46  59 NW12      29.98R
GRANITE FALLS  CLOUDY    62  48  60 SW15      29.98S
CANBY          CLOUDY    60  43  52 W12       29.99R
MARSHALL       CLOUDY    66  45  45 W16       29.96R
REDWOOD FALLS  PTSUNNY   69  46  43 SW22G28   29.95F
OLIVIA         CLOUDY    68  48  49 SW17      29.95F
PIPESTONE      PTSUNNY   68  45  42 W15       29.97S
WINDOM         MOSUNNY   70  45  40 S24G30    29.97F
WORTHINGTON    SUNNY     70  43  37 SW20G26   30.00F
JACKSON        PTSUNNY   72  43  35 SW24G30   30.00S
TRACY          PTSUNNY   68  47  46 SW15G23   29.96F
SLAYTON        MOSUNNY   67  44  43 SW17G26   29.98S
$$
MNZ065>067-074>077-082>085-091>093-191900-
   South Central Minnesota

CITY           SKY/WX    TMP DP  RH WIND       PRES   REMARKS
MANKATO        PTSUNNY   66  43  42 S25G31    30.02F
NEW ULM        MOSUNNY   70  45  40 SW22G30   29.96F
ST JAMES       CLOUDY    72  43  35 S18G24    29.99F
FAIRMONT       PTSUNNY   72  41  33 S26       30.02F
GLENCOE        MOSUNNY   65  42  43 S17G25    29.98F
FARIBAULT      CLOUDY    63  37  39 S17G24    30.05F
OWATONNA       PTSUNNY   61  41  48 S26G35    30.05F
WASECA         CLOUDY    63  45  51 S26G32    30.06F
ALBERT LEA     PTSUNNY   63  39  42 S22G28    30.06F
$$
MNZ078>079-086>088-094>096-191900-
   Southeast Minnesota

CITY           SKY/WX    TMP DP  RH WIND       PRES   REMARKS
ROCHESTER      SUNNY     60  39  45 S24G35    30.11F
6HR MIN TEMP:  36; 6HR MAX TEMP:  60;

RED WING       PTSUNNY   59  36  41 S12G21    30.08F
STANTON        CLOUDY    58  40  50 S20G29    30.04F
DODGE CENTER   MOSUNNY   63  37  39 S24G32    30.09F
WINONA         SUNNY     63  32  31 S8G18     30.15F
AUSTIN         SUNNY     63  36  36 S16G25    30.09F
PRESTON        SUNNY     62  38  39 S23       30.13F
$$
ABBREVIATIONS USED IN REMARKS
   TC - TEMPERATURES IN CELSIUS
  WCI - WIND CHILL INDEX
   HX - HEAT INDEX
  VSB - VISIBILITY
$$



USA.gov is the U.S. government's official web portal to all federal, state and local government web resources and services.